Location: Newark
(34.0131°N, 4.3314°W)
Time: 06:57:54
(UTC+00:00)

Transit 2A Rocket - Pass Details

Date: 25 October 2019
Orbit: 594 x 909 km, 66.7° (Epoch: 21 November)

Event Time Altitude Azimuth Distance (km) Brightness Sun altitude
Rises 03:14:28 0° 196° (SSW) 3,284 - -41.0°
Reaches altitude 10° 03:17:00 10° 193° (SSW) 2,308 - -40.5°
Maximum altitude 03:22:11 62° 114° (ESE) 812 - -39.4°
Drops below altitude 10° 03:26:55 10° 34° (NE) 2,117 - -38.5°
Exits shadow 03:26:57 10° 34° (NE) 2,129 7.7 -38.5°
Sets 03:29:09 0° 31° (NNE) 2,991 8.6 -38.0°
